| time (UTC) | temp F | wind direction | speed MPH | gust MPH | rain 1hr in | rain 24hr in | rain mn in | humidity % | barometer mb |
| 20260508050004 | 49 | 15 | 0.0 | 0.0 | 0.00 | 0.00 | 0.00 | 71 | 1010.8 |
| 20260508044531 | 49 | 145 | 0.0 | 0.0 | 0.00 | 0.00 | 0.00 | 68 | 1010.7 |
| 20260508043029 | 50 | 252 | 0.0 | 0.0 | 0.00 | 0.00 | 0.00 | 68 | 1010.7 |
| 20260508041558 | 50 | 321 | 0.0 | 0.0 | 0.00 | 0.00 | 0.00 | 67 | 1010.6 |
| 20260508040101 | 51 | 101 | 0.0 | 0.0 | 0.00 | 0.00 | 0.00 | 65 | 1010.6 |
| 20260508034519 | 53 | 150 | 0.0 | 0.0 | 0.00 | 0.00 | 0.00 | 62 | 1010.6 |
| 20260508033018 | 54 | 281 | 0.0 | 0.0 | 0.00 | 0.00 | 0.00 | 61 | 1010.5 |
| 20260508031512 | 54 | 221 | 0.0 | 0.0 | 0.00 | 0.00 | 0.00 | 59 | 1010.5 |
| 20260508030012 | 56 | 71 | 0.0 | 0.0 | 0.00 | 0.00 | 0.00 | 57 | 1010.3 |
| 20260508024517 | 57 | 309 | 0.0 | 0.0 | 0.00 | 0.00 | 0.00 | 55 | 1010.1 |
| 20260508023015 | 58 | 193 | 0.0 | 0.0 | 0.00 | 0.00 | 0.00 | 54 | 1010.0 |
| 20260508021507 | 59 | 251 | 0.0 | 0.0 | 0.00 | 0.00 | 0.00 | 51 | 1009.7 |
| 20260508020007 | 60 | 95 | 0.0 | 0.0 | 0.00 | 0.00 | 0.00 | 52 | 1009.6 |
| 20260508014508 | 60 | 240 | 0.0 | 0.0 | 0.00 | 0.00 | 0.00 | 49 | 1009.4 |
| 20260508013006 | 61 | 262 | 0.0 | 0.0 | 0.00 | 0.00 | 0.00 | 48 | 1009.5 |
| 20260508011535 | 61 | 72 | 0.0 | 0.0 | 0.00 | 0.00 | 0.00 | 48 | 1009.5 |
| 20260508010036 | 62 | 82 | 0.0 | 0.0 | 0.00 | 0.00 | 0.00 | 47 | 1009.4 |
| 20260508004534 | 62 | 195 | 0.0 | 0.0 | 0.00 | 0.00 | 0.00 | 45 | 1009.3 |
| 20260508003030 | 63 | 158 | 0.0 | 8.0 | 0.00 | 0.00 | 0.00 | 42 | 1009.2 |
| 20260508001531 | 64 | 360 | 0.0 | 8.0 | 0.00 | 0.00 | 0.00 | 40 | 1009.3 |
| 20260508000029 | 65 | 186 | 1.0 | 10.0 | 0.00 | 0.00 | 0.00 | 38 | 1009.3 |
| 20260507234526 | 65 | 80 | 0.0 | 14.0 | 0.00 | 0.00 | 0.00 | 36 | 1009.3 |
| 20260507233038 | 66 | 157 | 0.0 | 3.0 | 0.00 | 0.00 | 0.00 | 37 | 1009.0 |
| 20260507231533 | 65 | 283 | 0.0 | 10.0 | 0.00 | 0.00 | 0.00 | 39 | 1009.1 |
| 20260507230024 | 65 | 86 | 2.0 | 11.0 | 0.00 | 0.00 | 0.00 | 37 | 1008.9 |
| 20260507224521 | 65 | 356 | 2.0 | 11.0 | 0.00 | 0.00 | 0.00 | 37 | 1008.8 |
| 20260507223021 | 66 | 92 | 8.0 | 23.0 | 0.00 | 0.00 | 0.00 | 34 | 1008.8 |
| 20260507221525 | 68 | 10 | 0.0 | 7.0 | 0.00 | 0.00 | 0.00 | 32 | 1008.7 |
| 20260507220020 | 68 | 360 | 1.0 | 16.0 | 0.00 | 0.00 | 0.00 | 30 | 1008.6 |
| 20260507214512 | 69 | 0.0 | 6.0 | 0.00 | 0.00 | 0.00 | 31 | 1008.9 | |
| 20260507213012 | 69 | 160 | 0.0 | 3.0 | 0.00 | 0.00 | 0.00 | 30 | 1009.0 |
| 20260507211512 | 68 | 348 | 1.0 | 15.0 | 0.00 | 0.00 | 0.00 | 31 | 1009.2 |
| 20260507210006 | 68 | 3.0 | 13.0 | 0.00 | 0.00 | 0.00 | 31 | 1009.5 | |
| 20260507204532 | 66 | 240 | 0.0 | 6.0 | 0.00 | 0.00 | 0.00 | 32 | 1009.7 |
| 20260507203039 | 67 | 1 | 0.0 | 15.0 | 0.00 | 0.00 | 0.00 | 32 | 1010.0 |
| 20260507201529 | 65 | 22 | 4.0 | 17.0 | 0.00 | 0.00 | 0.00 | 32 | 1010.3 |
| 20260507200028 | 64 | 280 | 1.0 | 12.0 | 0.00 | 0.00 | 0.00 | 33 | 1010.6 |
| 20260507194527 | 63 | 5 | 0.0 | 8.0 | 0.00 | 0.00 | 0.00 | 32 | 1010.6 |
| 20260507193026 | 64 | 356 | 2.0 | 17.0 | 0.00 | 0.00 | 0.00 | 31 | 1010.5 |
| 20260507191625 | 64 | 181 | 8.0 | 20.0 | 0.00 | 0.00 | 0.00 | 31 | 1010.4 |
| 20260507190058 | 66 | 15 | 6.0 | 21.0 | 0.00 | 0.00 | 0.00 | 29 | 1010.4 |
| 20260507184558 | 65 | 150 | 8.0 | 18.0 | 0.00 | 0.00 | 0.00 | 30 | 1010.5 |
| 20260507183049 | 65 | 188 | 6.0 | 18.0 | 0.00 | 0.00 | 0.00 | 31 | 1010.5 |
| 20260507181542 | 63 | 208 | 6.0 | 18.0 | 0.00 | 0.00 | 0.00 | 31 | 1010.5 |
| 20260507180045 | 63 | 245 | 3.0 | 15.0 | 0.00 | 0.00 | 0.00 | 35 | 1010.6 |
| 20260507174539 | 61 | 2.0 | 13.0 | 0.00 | 0.00 | 0.00 | 37 | 1010.6 | |
| 20260507173017 | 61 | 319 | 3.0 | 15.0 | 0.00 | 0.00 | 0.00 | 40 | 1010.6 |
| 20260507171508 | 60 | 108 | 0.0 | 15.0 | 0.00 | 0.00 | 0.00 | 40 | 1010.6 |
| 20260507170104 | 59 | 151 | 0.0 | 0.0 | 0.00 | 0.00 | 0.00 | 41 | 1010.7 |
| 20260507164601 | 57 | 122 | 0.0 | 0.0 | 0.00 | 0.00 | 0.00 | 46 | 1010.7 |
| 20260507163053 | 57 | 49 | 0.0 | 0.0 | 0.00 | 0.00 | 0.00 | 44 | 1010.7 |
| 20260507161554 | 57 | 286 | 0.0 | 0.0 | 0.00 | 0.00 | 0.00 | 44 | 1010.8 |
| 20260507160047 | 55 | 207 | 0.0 | 0.0 | 0.00 | 0.00 | 0.00 | 48 | 1010.8 |
| 20260507154551 | 55 | 73 | 0.0 | 0.0 | 0.00 | 0.00 | 0.00 | 48 | 1010.8 |
| 20260507153039 | 54 | 155 | 0.0 | 0.0 | 0.00 | 0.00 | 0.00 | 50 | 1010.7 |
| 20260507151536 | 52 | 26 | 0.0 | 0.0 | 0.00 | 0.00 | 0.00 | 52 | 1010.6 |
| 20260507150031 | 50 | 17 | 0.0 | 0.0 | 0.00 | 0.00 | 0.00 | 54 | 1010.5 |
| 20260507144533 | 48 | 14 | 0.0 | 0.0 | 0.00 | 0.00 | 0.00 | 55 | 1010.4 |
| 20260507143034 | 47 | 220 | 0.0 | 0.0 | 0.00 | 0.00 | 0.00 | 57 | 1010.4 |
| 20260507141527 | 45 | 120 | 0.0 | 4.0 | 0.00 | 0.00 | 0.00 | 58 | 1010.2 |
| 20260507140057 | 42 | 312 | 0.0 | 0.0 | 0.00 | 0.00 | 0.00 | 62 | 1010.3 |
| 20260507134603 | 41 | 116 | 0.0 | 5.0 | 0.00 | 0.00 | 0.00 | 65 | 1010.2 |
| 20260507133115 | 40 | 217 | 0.0 | 0.0 | 0.00 | 0.00 | 0.00 | 71 | 1010.0 |
| 20260507131555 | 40 | 228 | 0.0 | 1.0 | 0.00 | 0.00 | 0.00 | 67 | 1010.0 |
| 20260507130105 | 42 | 332 | 0.0 | 0.0 | 0.00 | 0.00 | 0.00 | 61 | 1010.2 |
| 20260507124549 | 41 | 86 | 0.0 | 0.0 | 0.00 | 0.00 | 0.00 | 58 | 1010.3 |
| 20260507123018 | 41 | 300 | 0.0 | 0.0 | 0.00 | 0.00 | 0.00 | 57 | 1010.2 |
| 20260507121518 | 40 | 116 | 0.0 | 0.0 | 0.00 | 0.00 | 0.00 | 57 | 1010.3 |
| 20260507120056 | 39 | 219 | 0.0 | 0.0 | 0.00 | 0.00 | 0.00 | 62 | 1010.2 |
| 20260507114626 | 40 | 249 | 0.0 | 0.0 | 0.00 | 0.00 | 0.00 | 59 | 1009.9 |
| 20260507113016 | 42 | 221 | 0.0 | 0.0 | 0.00 | 0.00 | 0.00 | 50 | 1009.8 |
| 20260507111513 | 42 | 338 | 0.0 | 0.0 | 0.00 | 0.00 | 0.00 | 52 | 1009.9 |
| 20260507110042 | 42 | 121 | 0.0 | 0.0 | 0.00 | 0.00 | 0.00 | 56 | 1009.7 |
| 20260507104541 | 41 | 57 | 0.0 | 0.0 | 0.00 | 0.00 | 0.00 | 56 | 1009.6 |
| 20260507103038 | 41 | 168 | 0.0 | 0.0 | 0.00 | 0.00 | 0.00 | 58 | 1009.6 |
| 20260507101537 | 42 | 300 | 0.0 | 0.0 | 0.00 | 0.00 | 0.00 | 52 | 1009.7 |
| 20260507100035 | 44 | 0.0 | 0.0 | 0.00 | 0.00 | 0.00 | 50 | 1010.5 | |
| 20260507094533 | 43 | 44 | 0.0 | 0.0 | 0.00 | 0.00 | 0.00 | 52 | 1010.3 |
| 20260507093027 | 43 | 0.0 | 0.0 | 0.00 | 0.00 | 0.00 | 52 | 1010.3 | |
| 20260507091531 | 44 | 290 | 0.0 | 0.0 | 0.00 | 0.00 | 0.00 | 47 | 1009.8 |
| 20260507090032 | 44 | 101 | 0.0 | 0.0 | 0.00 | 0.00 | 0.00 | 47 | 1009.6 |
| 20260507084526 | 45 | 181 | 0.0 | 0.0 | 0.00 | 0.00 | 0.00 | 48 | 1009.3 |
| 20260507083017 | 45 | 22 | 0.0 | 0.0 | 0.00 | 0.00 | 0.00 | 46 | 1009.7 |
| 20260507081514 | 46 | 276 | 0.0 | 0.0 | 0.00 | 0.00 | 0.00 | 42 | 1009.8 |
| 20260507080013 | 46 | 184 | 0.0 | 0.0 | 0.00 | 0.00 | 0.00 | 43 | 1009.9 |
| 20260507074513 | 47 | 34 | 0.0 | 0.0 | 0.00 | 0.00 | 0.00 | 40 | 1010.0 |
| 20260507073007 | 47 | 0.0 | 0.0 | 0.00 | 0.00 | 0.00 | 39 | 1010.2 | |
| 20260507071507 | 48 | 98 | 0.0 | 0.0 | 0.00 | 0.00 | 0.00 | 38 | 1010.5 |
| 20260507070010 | 48 | 226 | 0.0 | 0.0 | 0.00 | 0.00 | 0.00 | 38 | 1010.6 |
| 20260507064504 | 48 | 135 | 0.0 | 1.0 | 0.00 | 0.00 | 0.00 | 38 | 1010.6 |
| 20260507063002 | 47 | 113 | 0.0 | 4.0 | 0.00 | 0.00 | 0.00 | 38 | 1010.8 |
| 20260507061600 | 47 | 126 | 0.0 | 0.0 | 0.00 | 0.00 | 0.00 | 41 | 1010.7 |
| 20260507060058 | 47 | 132 | 0.0 | 0.0 | 0.00 | 0.00 | 0.00 | 40 | 1010.4 |
| 20260507054557 | 46 | 250 | 0.0 | 0.0 | 0.00 | 0.00 | 0.00 | 43 | 1010.3 |
| 20260507053116 | 48 | 248 | 0.0 | 0.0 | 0.00 | 0.00 | 0.00 | 39 | 1010.2 |
| 20260507053106 | 48 | 357 | 0.0 | 0.0 | 0.00 | 0.00 | 0.00 | 39 | 1010.2 |
| 20260507051552 | 47 | 8 | 0.0 | 0.0 | 0.00 | 0.00 | 0.00 | 39 | 1010.3 |